Location: Kumla
(59.1265°N, 15.1401°E)
Time: 13:29:45
(UTC+01:00)

Vanguard 3 - Pass Details

Date: 11 December 2023
Orbit: 508 x 3239 km, 33.4° (Epoch: 03 March)

Event Time Altitude Azimuth Distance (km) Brightness Sun altitude
Rises 23:19:39 0° 249° (WSW) 6,018 11.5 -53.4°
Enters shadow 23:20:42 - 246° (WSW) 5,764 11.4 -53.5°
Reaches altitude 10° 23:27:46 10° 222° (SW) 4,217 - -53.6°
Maximum altitude 23:30:46 11° 206° (SSW) 3,771 - -53.7°
Drops below altitude 10° 23:33:24 10° 190° (S) 3,585 - -53.7°
Sets 23:38:34 0° 158° (SSE) 3,940 - -53.8°
